Starlink 30766

operational
NORAD ID: 58125 Int'l Des: 2023-162 Owner: SPXS Country: US Constellation: starlink
LEOCIRCULAR

About Starlink 30766

Description loading...

Live Position

Loading 3D Globe...

Upcoming Passes

Altitude History

Altitude vs Time

uPlot chart will show altitude changes over time

Two-Line Element Set

1 58125U 23162H 25258.60573780 .00000345 00000-0 40613-4 0 9993
2 58125 43.0066 4.3771 0001259 263.7684 96.3015 15.02538895105968
Epoch: Sep 15, 2025 • Age: 10 hours

Current Status

Altitude 558.5 km
Velocity 7.59 km/s
Sub-Earth Point 13.90°N, 19.27°E
Launch Date Oct 22, 2023
Age 1.9 years
Type internet

Technical Details

Classification Payload
Mass 730.00 kg
Dry Mass 700.00 kg
Total Mass 730.00 kg
Length 0.30 m
Diameter 4.10 m
Span 29.00 m
Shape Box + pan
Manufacturer SPXS
Bus Type Starlink V2M
Phase Status In Orbit
Owner/State SPXS/US

Large Constellations

Loading constellations...